TimeCST,TemperatureF,Dew PointF,Humidity,Sea Level PressureIn,VisibilityMPH,Wind Direction,Wind SpeedMPH,Gust SpeedMPH,PrecipitationIn,Events,Conditions,WindDirDegrees,DateUTC
12:15 AM,14.0,10.4,86,30.18,-9999.0,Calm,Calm,-,N/A,Snow,Heavy Snow,0,2014-02-05 06:15:00
12:35 AM,14.0,10.4,86,30.18,-9999.0,Calm,Calm,-,N/A,Snow,Heavy Snow,0,2014-02-05 06:35:00
12:55 AM,14.0,10.4,86,30.17,-9999.0,Calm,Calm,-,N/A,Snow,Heavy Snow,0,2014-02-05 06:55:00
1:15 AM,12.2,8.6,85,30.18,-9999.0,Calm,Calm,-,N/A,Snow,Heavy Snow,0,2014-02-05 07:15:00
1:35 AM,10.4,8.6,92,30.18,-9999.0,Calm,Calm,-,N/A,Snow,Heavy Snow,0,2014-02-05 07:35:00
1:55 AM,10.4,8.6,92,30.19,-9999.0,Calm,Calm,-,N/A,Snow,Heavy Snow,0,2014-02-05 07:55:00
2:15 AM,10.4,6.8,85,30.20,-9999.0,Calm,Calm,-,N/A,Snow,Heavy Snow,0,2014-02-05 08:15:00
2:35 AM,10.4,6.8,85,30.21,-9999.0,Calm,Calm,-,N/A,Snow,Heavy Snow,0,2014-02-05 08:35:00
2:55 AM,8.6,5.0,85,30.21,-9999.0,Calm,Calm,-,N/A,Snow,Heavy Snow,0,2014-02-05 08:55:00
3:15 AM,8.6,5.0,85,30.22,-9999.0,Calm,Calm,-,N/A,Snow,Heavy Snow,0,2014-02-05 09:15:00
3:35 AM,8.6,5.0,85,30.23,-9999.0,Calm,Calm,-,N/A,Snow,Heavy Snow,0,2014-02-05 09:35:00
3:55 AM,8.6,3.2,79,30.24,-9999.0,Calm,Calm,-,N/A,Snow,Heavy Snow,0,2014-02-05 09:55:00
4:15 AM,6.8,3.2,85,30.25,-9999.0,Calm,Calm,-,N/A,Snow,Heavy Snow,0,2014-02-05 10:15:00
4:35 AM,6.8,1.4,79,30.26,-9999.0,Calm,Calm,-,N/A,Rain,Freezing Rain,0,2014-02-05 10:35:00
4:55 AM,6.8,1.4,79,30.27,-9999.0,Calm,Calm,-,N/A,Rain,Freezing Rain,0,2014-02-05 10:55:00
5:15 AM,6.8,1.4,79,30.29,-9999.0,Calm,Calm,-,N/A,Rain,Freezing Rain,0,2014-02-05 11:15:00
5:35 AM,6.8,1.4,79,30.30,-9999.0,Calm,Calm,-,N/A,Rain,Freezing Rain,0,2014-02-05 11:35:00
5:55 AM,6.8,1.4,79,30.32,-9999.0,Calm,Calm,-,N/A,Rain,Freezing Rain,0,2014-02-05 11:55:00
6:15 AM,6.8,1.4,79,30.32,-9999.0,Calm,Calm,-,N/A,Snow,Heavy Snow,0,2014-02-05 12:15:00
6:35 AM,5.0,-0.4,78,30.34,-9999.0,Calm,Calm,-,N/A,Snow,Heavy Snow,0,2014-02-05 12:35:00
6:55 AM,5.0,-0.4,78,30.35,-9999.0,Calm,Calm,-,N/A,Snow,Heavy Snow,0,2014-02-05 12:55:00
7:15 AM,5.0,-0.4,78,30.36,-9999.0,Calm,Calm,-,N/A,Snow,Heavy Snow,0,2014-02-05 13:15:00
7:35 AM,5.0,-0.4,78,30.38,-9999.0,Calm,Calm,-,N/A,Snow,Heavy Snow,0,2014-02-05 13:35:00
7:55 AM,5.0,-0.4,78,30.39,-9999.0,Calm,Calm,-,N/A,Snow,Heavy Snow,0,2014-02-05 13:55:00
8:15 AM,5.0,-0.4,78,30.40,-9999.0,Calm,Calm,-,N/A,Rain,Freezing Rain,0,2014-02-05 14:15:00
8:35 AM,5.0,-0.4,78,30.42,-9999.0,Calm,Calm,-,N/A,Snow,Heavy Snow,0,2014-02-05 14:35:00
8:55 AM,5.0,-0.4,78,30.42,-9999.0,Calm,Calm,-,N/A,Snow,Heavy Snow,0,2014-02-05 14:55:00
9:15 AM,5.0,-0.4,78,30.43,-9999.0,Calm,Calm,-,N/A,Rain,Freezing Rain,0,2014-02-05 15:15:00
9:35 AM,5.0,-0.4,78,30.44,-9999.0,Calm,Calm,-,N/A,Rain,Freezing Rain,0,2014-02-05 15:35:00
9:55 AM,5.0,-0.4,78,30.45,-9999.0,Calm,Calm,-,N/A,Rain,Freezing Rain,0,2014-02-05 15:55:00
10:15 AM,6.8,-0.4,72,30.46,-9999.0,Calm,Calm,-,N/A,Rain,Freezing Rain,0,2014-02-05 16:15:00
10:35 AM,6.8,-0.4,72,30.46,-9999.0,Calm,Calm,-,N/A,Rain,Freezing Rain,0,2014-02-05 16:35:00
10:55 AM,6.8,-0.4,72,30.47,-9999.0,Calm,Calm,-,N/A,Rain,Freezing Rain,0,2014-02-05 16:55:00
11:15 AM,6.8,-0.4,72,30.47,-9999.0,Calm,Calm,-,N/A,Rain,Freezing Rain,0,2014-02-05 17:15:00
11:35 AM,6.8,-0.4,72,30.46,-9999.0,Calm,Calm,-,N/A,Rain,Freezing Rain,0,2014-02-05 17:35:00
11:55 AM,6.8,-0.4,72,30.45,-9999.0,Calm,Calm,-,N/A,Rain,Freezing Rain,0,2014-02-05 17:55:00
12:15 PM,8.6,-0.4,67,30.47,-9999.0,Calm,Calm,-,N/A,Snow,Heavy Snow,0,2014-02-05 18:15:00
12:35 PM,8.6,-0.4,67,30.47,-9999.0,Calm,Calm,-,N/A,,Scattered Clouds,0,2014-02-05 18:35:00
12:55 PM,8.6,-0.4,67,30.47,-9999.0,Calm,Calm,-,N/A,,Mostly Cloudy,0,2014-02-05 18:55:00
1:15 PM,8.6,-0.4,67,30.47,-9999.0,Calm,Calm,-,N/A,,Mostly Cloudy,0,2014-02-05 19:15:00
1:35 PM,8.6,-0.4,67,30.47,-9999.0,Calm,Calm,-,N/A,,Scattered Clouds,0,2014-02-05 19:35:00
1:55 PM,8.6,-0.4,67,30.48,-9999.0,Calm,Calm,-,N/A,Snow,Heavy Snow,0,2014-02-05 19:55:00
2:15 PM,8.6,-0.4,67,30.47,-9999.0,Calm,Calm,-,N/A,Snow,Heavy Snow,0,2014-02-05 20:15:00
2:35 PM,8.6,-0.4,67,30.48,-9999.0,Calm,Calm,-,N/A,,Mostly Cloudy,0,2014-02-05 20:35:00
2:55 PM,8.6,-0.4,67,30.48,-9999.0,Calm,Calm,-,N/A,,Mostly Cloudy,0,2014-02-05 20:55:00
3:15 PM,8.6,-0.4,67,30.50,-9999.0,Calm,Calm,-,N/A,Snow,Heavy Snow,0,2014-02-05 21:15:00
3:35 PM,8.6,-0.4,67,30.50,-9999.0,Calm,Calm,-,N/A,,Scattered Clouds,0,2014-02-05 21:35:00
3:55 PM,8.6,-0.4,67,30.51,-9999.0,Calm,Calm,-,N/A,,Clear,0,2014-02-05 21:55:00
4:15 PM,6.8,-0.4,72,30.53,-9999.0,Calm,Calm,-,N/A,,Clear,0,2014-02-05 22:15:00
4:35 PM,6.8,-2.2,67,30.53,-9999.0,Calm,Calm,-,N/A,,Clear,0,2014-02-05 22:35:00
4:55 PM,6.8,-2.2,67,30.53,-9999.0,Calm,Calm,-,N/A,,Clear,0,2014-02-05 22:55:00
5:15 PM,5.0,-2.2,72,30.54,-9999.0,Calm,Calm,-,N/A,,Clear,0,2014-02-05 23:15:00
5:35 PM,5.0,-4.0,66,30.55,-9999.0,Calm,Calm,-,N/A,,Clear,0,2014-02-05 23:35:00
5:55 PM,5.0,-4.0,66,30.56,-9999.0,Calm,Calm,-,N/A,,Clear,0,2014-02-05 23:55:00
6:15 PM,3.2,-4.0,72,30.56,-9999.0,Calm,Calm,-,N/A,,Clear,0,2014-02-06 00:15:00
6:35 PM,3.2,-4.0,72,30.56,-9999.0,Calm,Calm,-,N/A,,Clear,0,2014-02-06 00:35:00
6:55 PM,1.4,-4.0,78,30.57,-9999.0,Calm,Calm,-,N/A,,Clear,0,2014-02-06 00:55:00
7:15 PM,1.4,-5.8,72,30.57,-9999.0,Calm,Calm,-,N/A,,Clear,0,2014-02-06 01:15:00
7:35 PM,-0.4,-5.8,78,30.57,-9999.0,Calm,Calm,-,N/A,,Clear,0,2014-02-06 01:35:00
7:55 PM,-0.4,-5.8,78,30.56,-9999.0,Calm,Calm,-,N/A,,Clear,0,2014-02-06 01:55:00
8:15 PM,-0.4,-5.8,78,30.56,-9999.0,Calm,Calm,-,N/A,,Clear,0,2014-02-06 02:15:00
8:35 PM,-0.4,-5.8,78,30.56,-9999.0,Calm,Calm,-,N/A,,Clear,0,2014-02-06 02:35:00
8:55 PM,-0.4,-7.6,72,30.57,-9999.0,Calm,Calm,-,N/A,,Clear,0,2014-02-06 02:55:00
9:15 PM,-0.4,-7.6,72,30.57,-9999.0,Calm,Calm,-,N/A,,Clear,0,2014-02-06 03:15:00
9:35 PM,-2.2,-9.4,71,30.58,-9999.0,Calm,Calm,-,N/A,,Clear,0,2014-02-06 03:35:00
9:55 PM,-2.2,-9.4,71,30.58,-9999.0,Calm,Calm,-,N/A,,Clear,0,2014-02-06 03:55:00
10:15 PM,-2.2,-9.4,71,30.58,-9999.0,Calm,Calm,-,N/A,,Clear,0,2014-02-06 04:15:00
10:35 PM,-2.2,-9.4,71,30.59,-9999.0,Calm,Calm,-,N/A,,Clear,0,2014-02-06 04:35:00
10:55 PM,-4.0,-9.4,78,30.59,-9999.0,Calm,Calm,-,N/A,,Clear,0,2014-02-06 04:55:00
11:15 PM,-4.0,-9.4,78,30.59,-9999.0,Calm,Calm,-,N/A,,Clear,0,2014-02-06 05:15:00
11:35 PM,-4.0,-11.2,71,30.58,-9999.0,Calm,Calm,-,N/A,,Clear,0,2014-02-06 05:35:00
11:55 PM,-5.8,-11.2,77,30.57,-9999.0,Calm,Calm,-,N/A,,Clear,0,2014-02-06 05:55:00